EWG40P EDDH-ESSA

Flight info

Callsign EWG40P
Flight time N/A
Altitude 37000
Route LUGEG3B LUGEG P605 MEGAR DCT KUBIS DCT MIKNA N851 PELUP Z226 NILUG
Aircraft A320/M-SDE3FGHIRWY/LB1

Departure

Time 2026-05-01 12:33
Airport Hamburg Helmut Schmidt Airport (EDDH)

Arrival

Time N/A
Airport Stockholm-Arlanda Airport (ESSA)
Time Latitude Longitude Altitude Speed Heading
2026-05-01 12:04 53.63206 10.00375 49 ft 0 kts 86°
2026-05-01 12:05 53.63206 10.00374 49 ft 0 kts 86°
2026-05-01 12:07 53.63245 10.00358 49 ft 0 kts 86°
2026-05-01 12:26 53.63245 10.00350 48 ft 3 kts 86°
2026-05-01 12:26 53.63239 10.00270 45 ft 4 kts 59°
2026-05-01 12:26 53.63222 10.00247 44 ft 4 kts
2026-05-01 12:27 53.63217 10.00246 44 ft 1 kts 356°
2026-05-01 12:29 53.63234 10.00244 54 ft 6 kts 356°
2026-05-01 12:29 53.63282 10.00239 45 ft 6 kts 356°
2026-05-01 12:29 53.63390 10.00226 48 ft 10 kts 356°
2026-05-01 12:30 53.63508 10.00158 48 ft 9 kts 320°
2026-05-01 12:30 53.63544 10.00108 50 ft 1 kts 321°
2026-05-01 12:31 53.63552 10.00097 50 ft 8 kts 321°
2026-05-01 12:31 53.63600 10.00029 53 ft 12 kts 318°
2026-05-01 12:32 53.63596 9.99950 50 ft 9 kts 226°
2026-05-01 12:32 53.63046 9.98843 46 ft 127 kts 230°
2026-05-01 12:32 53.62380 9.97496 238 ft 161 kts 228°
2026-05-01 12:33 53.61677 9.96019 960 ft 163 kts 228°
2026-05-01 12:33 53.60960 9.94537 1639 ft 173 kts 227°
2026-05-01 12:33 53.60137 9.92880 2078 ft 196 kts 228°
2026-05-01 12:33 53.59213 9.91016 2568 ft 217 kts 228°
2026-05-01 12:34 53.58246 9.89058 3584 ft 218 kts 228°
2026-05-01 12:34 53.57295 9.87056 4455 ft 223 kts 234°
2026-05-01 12:34 53.56883 9.84532 5076 ft 233 kts 274°
2026-05-01 12:34 53.57562 9.82040 5814 ft 243 kts 315°
2026-05-01 12:35 53.59026 9.80648 6655 ft 246 kts 342°
2026-05-01 12:35 53.60692 9.79985 7454 ft 248 kts
2026-05-01 12:35 53.62385 9.80415 8221 ft 248 kts 22°
2026-05-01 12:35 53.63968 9.81758 8709 ft 265 kts 40°
2026-05-01 12:36 53.65403 9.83829 9168 ft 285 kts 44°
2026-05-01 12:36 53.66931 9.86055 9946 ft 294 kts 44°
2026-05-01 12:36 53.68502 9.88309 10674 ft 304 kts 44°
2026-05-01 12:36 53.70041 9.90916 10986 ft 324 kts 55°
2026-05-01 12:37 53.71472 9.94010 11377 ft 342 kts 55°
2026-05-01 12:37 53.72937 9.97228 12079 ft 348 kts 56°
2026-05-01 12:37 53.74416 10.00496 12875 ft 353 kts 56°
2026-05-01 12:37 53.75916 10.03814 13659 ft 357 kts 56°
2026-05-01 12:38 53.77433 10.07169 14407 ft 361 kts 55°
2026-05-01 12:38 53.78969 10.10558 15100 ft 365 kts 55°
2026-05-01 12:38 53.80523 10.13980 15792 ft 368 kts 54°
2026-05-01 12:38 53.82068 10.17381 16475 ft 371 kts 54°
2026-05-01 12:39 53.83648 10.20864 17128 ft 374 kts 53°
2026-05-01 12:39 53.85231 10.24369 17813 ft 377 kts 56°
2026-05-01 12:39 53.86653 10.28127 18522 ft 380 kts 61°
2026-05-01 12:39 53.88016 10.31986 19170 ft 383 kts 57°
2026-05-01 12:40 53.89573 10.35688 19726 ft 388 kts 54°
2026-05-01 12:40 53.91197 10.39378 20316 ft 392 kts 54°
2026-05-01 12:40 53.92855 10.43067 20933 ft 395 kts 53°
2026-05-01 12:40 53.94540 10.46772 21513 ft 398 kts 53°
2026-05-01 12:41 53.96220 10.50447 22103 ft 401 kts 53°
2026-05-01 12:41 53.97939 10.54214 22687 ft 404 kts 53°
2026-05-01 12:41 53.99661 10.58006 23265 ft 407 kts 53°
2026-05-01 12:41 54.01388 10.61829 23840 ft 409 kts 53°
2026-05-01 12:42 54.03120 10.65682 24311 ft 412 kts 53°
2026-05-01 12:42 54.04868 10.69582 24737 ft 415 kts 53°
2026-05-01 12:42 54.06620 10.73498 25179 ft 417 kts 53°
2026-05-01 12:42 54.08381 10.77435 25623 ft 419 kts 53°
2026-05-01 12:43 54.10153 10.81396 26041 ft 421 kts 53°
2026-05-01 12:43 54.11910 10.85320 26446 ft 424 kts 53°
2026-05-01 12:43 54.13701 10.89336 26864 ft 426 kts 53°
2026-05-01 12:43 54.15494 10.93367 27266 ft 428 kts 54°
2026-05-01 12:44 54.17291 10.97414 27380 ft 428 kts 53°
2026-05-01 12:44 54.19087 11.01462 27399 ft 428 kts 53°
2026-05-01 12:44 54.22678 11.09560 27398 ft 427 kts 54°
2026-05-01 12:45 54.26259 11.17662 27405 ft 428 kts 53°
2026-05-01 12:45 54.28028 11.21685 27408 ft 428 kts 53°
2026-05-01 12:45 54.29814 11.25757 27407 ft 428 kts 53°
2026-05-01 12:46 54.31596 11.29823 27401 ft 427 kts 53°
2026-05-01 12:46 54.33382 11.33895 27404 ft 427 kts 53°
2026-05-01 12:46 54.35164 11.37958 27410 ft 427 kts 53°
2026-05-01 12:46 54.36943 11.42023 27409 ft 427 kts 53°
2026-05-01 12:47 54.38721 11.46100 27407 ft 426 kts 53°
2026-05-01 12:47 54.40469 11.50120 27408 ft 426 kts 53°
2026-05-01 12:47 54.42237 11.54200 27409 ft 426 kts 53°
2026-05-01 12:47 54.44011 11.58294 27407 ft 426 kts 53°
2026-05-01 12:48 54.45840 11.62295 27408 ft 426 kts 48°
2026-05-01 12:48 54.47985 11.65806 27409 ft 427 kts 39°
2026-05-01 12:48 54.50425 11.68709 27405 ft 427 kts 32°
2026-05-01 12:48 54.52952 11.71421 27406 ft 427 kts 32°
2026-05-01 12:49 54.55470 11.74140 27405 ft 427 kts 32°
2026-05-01 12:49 54.57983 11.76870 27404 ft 427 kts 33°
2026-05-01 12:49 54.60466 11.79578 27403 ft 427 kts 33°
2026-05-01 12:49 54.62976 11.82323 27406 ft 427 kts 33°
2026-05-01 12:50 54.65484 11.85072 27407 ft 427 kts 33°
2026-05-01 12:50 54.68000 11.87830 27529 ft 430 kts 33°
2026-05-01 12:50 54.70531 11.90601 27946 ft 432 kts 32°
2026-05-01 12:50 54.73074 11.93379 28339 ft 434 kts 32°
2026-05-01 12:51 54.75629 11.96173 28728 ft 436 kts 32°
2026-05-01 12:51 54.78166 11.98955 29093 ft 438 kts 32°
2026-05-01 12:51 54.83309 12.04628 29870 ft 439 kts 32°
2026-05-01 12:52 54.85889 12.07477 30237 ft 441 kts 32°
2026-05-01 12:52 54.91086 12.13229 30807 ft 444 kts 32°
2026-05-01 12:52 54.93696 12.16120 31037 ft 446 kts 32°
2026-05-01 12:53 54.98950 12.21950 31485 ft 450 kts 32°
2026-05-01 12:53 55.01586 12.24888 31801 ft 449 kts 32°
2026-05-01 12:53 55.04187 12.27795 32112 ft 449 kts 32°
2026-05-01 12:54 55.06811 12.30731 32431 ft 448 kts 32°
2026-05-01 12:54 55.12046 12.36595 33051 ft 447 kts 32°
2026-05-01 12:54 55.14658 12.39530 33357 ft 447 kts 32°
2026-05-01 12:55 55.19883 12.45423 33959 ft 447 kts 33°
2026-05-01 12:55 55.22492 12.48373 34268 ft 446 kts 33°
2026-05-01 12:55 55.25093 12.51363 34563 ft 446 kts 33°
2026-05-01 12:56 55.27633 12.54341 34836 ft 445 kts 34°
2026-05-01 12:56 55.30197 12.57379 35122 ft 445 kts 34°
2026-05-01 12:56 55.32757 12.60427 35391 ft 444 kts 34°
2026-05-01 12:56 55.35309 12.63465 35658 ft 444 kts 34°
2026-05-01 12:57 55.37870 12.66507 35909 ft 443 kts 33°
2026-05-01 12:57 55.42975 12.72568 36404 ft 442 kts 33°
2026-05-01 12:57 55.45487 12.75553 36643 ft 441 kts 33°
2026-05-01 12:58 55.48030 12.78583 36875 ft 441 kts 33°
2026-05-01 12:58 55.50574 12.81620 37091 ft 441 kts 33°
2026-05-01 12:58 55.53105 12.84649 37316 ft 441 kts 33°
2026-05-01 12:59 55.58175 12.90725 37401 ft 439 kts 33°
2026-05-01 12:59 55.65734 12.99833 37401 ft 437 kts 33°
2026-05-01 13:00 55.73223 13.08874 37395 ft 436 kts 33°
2026-05-01 13:01 55.80728 13.17995 37382 ft 436 kts 33°
2026-05-01 13:02 55.88224 13.27135 37374 ft 436 kts 33°
2026-05-01 13:07 56.43102 13.95481 37353 ft 439 kts 33°
2026-05-01 13:08 56.48064 14.01782 37354 ft 438 kts 33°
2026-05-01 13:08 56.53047 14.08132 37352 ft 438 kts 33°
2026-05-01 13:09 56.57838 14.14960 37357 ft 439 kts 38°
2026-05-01 13:09 56.62444 14.22250 37348 ft 439 kts 39°
2026-05-01 13:10 56.67041 14.29557 37331 ft 439 kts 38°
2026-05-01 13:10 56.71651 14.36716 37318 ft 439 kts 38°
2026-05-01 13:11 56.76313 14.43896 37307 ft 439 kts 38°
2026-05-01 13:11 56.80972 14.51106 37311 ft 439 kts 38°
2026-05-01 13:12 56.85615 14.58340 37304 ft 439 kts 38°
2026-05-01 13:12 56.90254 14.65601 37300 ft 439 kts 38°
2026-05-01 13:13 56.94870 14.72844 37304 ft 440 kts 38°
2026-05-01 13:13 56.99506 14.80156 37296 ft 440 kts 38°
2026-05-01 13:14 57.04148 14.87489 37301 ft 440 kts 38°
2026-05-01 13:14 57.08783 14.94836 37311 ft 440 kts 38°
2026-05-01 13:15 57.13381 15.02142 37308 ft 439 kts 38°
2026-05-01 13:15 57.17991 15.09510 37300 ft 439 kts 38°
2026-05-01 13:16 57.22599 15.16898 37294 ft 438 kts 38°
2026-05-01 13:16 57.27196 15.24286 37288 ft 438 kts 38°
2026-05-01 13:17 57.36349 15.39082 37274 ft 438 kts 38°
2026-05-01 13:18 57.43228 15.50253 37257 ft 438 kts 38°
2026-05-01 13:18 57.47803 15.57730 37256 ft 438 kts 38°
2026-05-01 13:19 57.52353 15.65185 37262 ft 439 kts 38°
2026-05-01 13:20 57.59214 15.76488 37252 ft 439 kts 38°
2026-05-01 13:20 57.63782 15.84050 37250 ft 439 kts 38°
2026-05-01 13:21 57.70607 15.95374 37253 ft 439 kts 38°
2026-05-01 13:21 57.75164 16.02957 37256 ft 438 kts 38°
2026-05-01 13:22 57.79708 16.10575 37253 ft 438 kts 38°
2026-05-01 13:22 57.84240 16.18194 37250 ft 437 kts 38°
2026-05-01 13:23 57.88741 16.25770 37244 ft 437 kts 38°
2026-05-01 13:23 57.93256 16.33407 37238 ft 437 kts 38°
2026-05-01 13:24 57.97762 16.41053 37245 ft 436 kts 38°
2026-05-01 13:25 58.04529 16.52587 36777 ft 438 kts 38°
2026-05-01 13:25 58.06785 16.56451 36520 ft 439 kts 38°
2026-05-01 13:25 58.09021 16.60281 35960 ft 440 kts 38°
2026-05-01 13:25 58.11301 16.64188 35067 ft 444 kts 39°
2026-05-01 13:26 58.13590 16.68120 34263 ft 446 kts 39°
2026-05-01 13:26 58.15893 16.72087 33194 ft 450 kts 39°
2026-05-01 13:26 58.18219 16.76106 32219 ft 453 kts 39°
2026-05-01 13:26 58.20542 16.80129 31511 ft 450 kts 39°
2026-05-01 13:27 58.22832 16.84107 30902 ft 445 kts 39°
2026-05-01 13:27 58.25080 16.88015 30270 ft 442 kts 39°
2026-05-01 13:27 58.29561 16.95829 28961 ft 432 kts 39°
2026-05-01 13:28 58.33946 17.03483 27744 ft 423 kts 39°
2026-05-01 13:28 58.36100 17.07250 27139 ft 419 kts 39°
2026-05-01 13:29 58.40351 17.14709 25976 ft 411 kts 39°
2026-05-01 13:29 58.44493 17.22002 24881 ft 405 kts 39°
2026-05-01 13:30 58.52630 17.36416 22762 ft 391 kts 38°
2026-05-01 13:31 58.56564 17.43431 21802 ft 383 kts 38°
2026-05-01 13:31 58.62308 17.53681 20372 ft 373 kts 38°
2026-05-01 13:32 58.66087 17.60449 19386 ft 370 kts 38°
2026-05-01 13:33 58.71688 17.70514 17835 ft 367 kts 37°
2026-05-01 13:33 58.75407 17.77247 16820 ft 364 kts 37°
2026-05-01 13:34 58.79068 17.83902 15837 ft 360 kts 37°
2026-05-01 13:34 58.83142 17.88942 14932 ft 343 kts 15°
2026-05-01 13:35 58.87679 17.91304 14244 ft 335 kts
2026-05-01 13:35 58.89940 17.92350 13886 ft 334 kts
2026-05-01 13:35 58.94440 17.94447 13027 ft 331 kts
2026-05-01 13:36 58.96650 17.95478 12660 ft 330 kts
2026-05-01 13:36 58.98872 17.96514 12287 ft 329 kts
2026-05-01 13:36 59.03304 17.98588 11554 ft 326 kts
2026-05-01 13:37 59.05502 17.99620 11191 ft 325 kts
2026-05-01 13:37 59.07692 18.00644 10820 ft 323 kts
2026-05-01 13:37 59.09864 18.01665 10521 ft 317 kts
2026-05-01 13:37 59.11959 18.02663 10395 ft 303 kts
2026-05-01 13:38 59.15896 18.04539 10029 ft 285 kts
2026-05-01 13:38 59.17824 18.05448 9891 ft 285 kts
2026-05-01 13:38 59.19745 18.06350 9627 ft 283 kts
2026-05-01 13:39 59.21652 18.07249 9333 ft 281 kts
2026-05-01 13:39 59.23547 18.08145 9029 ft 279 kts
2026-05-01 13:39 59.25430 18.09035 8728 ft 278 kts
2026-05-01 13:39 59.27304 18.09924 8433 ft 277 kts
2026-05-01 13:40 59.29167 18.10815 8135 ft 275 kts
2026-05-01 13:40 59.30996 18.11687 7846 ft 274 kts
2026-05-01 13:40 59.32846 18.12568 7552 ft 273 kts
2026-05-01 13:40 59.34679 18.13442 7267 ft 269 kts
2026-05-01 13:41 59.36487 18.14306 6877 ft 262 kts
2026-05-01 13:41 59.38209 18.15136 6581 ft 249 kts
2026-05-01 13:41 59.39882 18.15944 6295 ft 243 kts
2026-05-01 13:41 59.41486 18.16720 6043 ft 236 kts